IZ4UFQ-10 Weather Reports


Display with metric or nautical units.
time (UTC)temp
F
wind
direction
speed
MPH
gust
MPH
rain 1hr
in
rain 24hr
in
rain mn
in
humidity
%
barometer
mb
20260831210508 80 216 0.0 0.0 0.00 0.00 0.00 54 1013.0
20260831210008 80 237 0.0 0.0 0.00 0.00 0.00 54 1012.9
20260831205508 80 206 0.0 0.0 0.00 0.00 0.00 54 1012.8
20260831205007 80 218 0.0 0.0 0.00 0.00 0.00 54 1012.7
20260831204507 80 231 0.0 0.0 0.00 0.00 0.00 53 1012.7
20260831204007 81 216 0.0 0.0 0.00 0.00 0.00 53 1012.6
20260831203506 81 226 0.0 0.0 0.00 0.00 0.00 53 1012.6
20260831203006 81 212 0.0 0.0 0.00 0.00 0.00 53 1012.4
20260831202506 81 212 0.0 0.0 0.00 0.00 0.00 52 1012.4
20260831202006 81 218 0.0 0.0 0.00 0.00 0.00 52 1012.4
20260831201505 81 262 0.0 0.0 0.00 0.00 0.00 52 1012.3
20260831201005 82 226 0.0 0.0 0.00 0.00 0.00 51 1012.2
20260831200505 82 168 0.0 0.0 0.00 0.00 0.00 51 1012.3
20260831200004 82 208 0.0 0.0 0.00 0.00 0.00 51 1012.1
20260831195504 82 221 0.0 0.0 0.00 0.00 0.00 51 1012.1
20260831195004 82 202 0.0 0.0 0.00 0.00 0.00 51 1012.0
20260831194504 82 197 0.0 0.0 0.00 0.00 0.00 51 1012.0
20260831194003 82 216 0.0 0.0 0.00 0.00 0.00 51 1011.9
20260831193503 82 204 0.0 0.0 0.00 0.00 0.00 51 1011.9
20260831193003 82 206 0.0 0.0 0.00 0.00 0.00 51 1011.9
20260831192502 83 224 0.0 0.0 0.00 0.00 0.00 51 1012.0
20260831192002 83 164 0.0 0.0 0.00 0.00 0.00 52 1012.0
20260831191502 83 206 0.0 0.0 0.00 0.00 0.00 52 1011.9
20260831191001 83 202 0.0 0.0 0.00 0.00 0.00 52 1012.0
20260831190501 83 161 0.0 0.0 0.00 0.00 0.00 52 1012.0
20260831190001 83 171 0.0 0.0 0.00 0.00 0.00 53 1011.9
20260831185501 84 187 0.0 0.0 0.00 0.00 0.00 53 1011.8
20260831185000 84 204 0.0 0.0 0.00 0.00 0.00 52 1011.8
20260831184500 84 215 0.0 0.0 0.00 0.00 0.00 52 1011.8
20260831184000 84 212 0.0 0.0 0.00 0.00 0.00 52 1011.8
20260831183459 84 192 0.0 0.0 0.00 0.00 0.00 53 1011.7
20260831182959 85 178 0.0 0.0 0.00 0.00 0.00 53 1011.7
20260831182459 85 234 0.0 0.0 0.00 0.00 0.00 53 1011.7
20260831181959 85 220 0.0 0.0 0.00 0.00 0.00 53 1011.6
20260831181458 85 208 0.0 0.0 0.00 0.00 0.00 53 1011.7
20260831180958 85 212 0.0 0.0 0.00 0.00 0.00 53 1011.6
20260831180458 86 214 0.0 0.0 0.00 0.00 0.00 53 1011.6
20260831175957 86 212 0.0 0.0 0.00 0.00 0.00 53 1011.5
20260831175457 86 204 0.0 0.0 0.00 0.00 0.00 53 1011.5
20260831174957 86 189 0.0 0.0 0.00 0.00 0.00 53 1011.5
20260831174457 87 196 0.0 0.0 0.00 0.00 0.00 53 1011.5
20260831173956 87 182 0.0 0.0 0.00 0.00 0.00 53 1011.4
20260831173456 87 168 0.0 0.0 0.00 0.00 0.00 52 1011.5
20260831172956 87 204 0.0 0.0 0.00 0.00 0.00 52 1011.6
20260831172455 88 197 0.0 0.0 0.00 0.00 0.00 51 1011.6
20260831171955 88 206 0.0 0.0 0.00 0.00 0.00 51 1011.5
20260831171455 88 171 0.0 0.0 0.00 0.00 0.00 50 1011.6
20260831170955 89 152 0.0 0.0 0.00 0.00 0.00 49 1011.6
20260831170454 89 179 0.0 0.0 0.00 0.00 0.00 49 1011.5
20260831165954 90 201 0.0 0.0 0.00 0.00 0.00 48 1011.6
20260831165454 90 188 0.0 0.0 0.00 0.00 0.00 47 1011.6
20260831164953 90 199 0.0 0.0 0.00 0.00 0.00 47 1011.6
20260831164453 90 192 0.0 0.0 0.00 0.00 0.00 46 1011.6
20260831163953 91 194 0.0 0.0 0.00 0.00 0.00 46 1011.7
20260831163453 91 193 0.0 0.0 0.00 0.00 0.00 45 1011.7
20260831162952 91 193 0.0 0.0 0.00 0.00 0.00 45 1011.7
20260831162452 92 208 0.0 0.0 0.00 0.00 0.00 44 1011.7
20260831161952 92 178 0.0 0.0 0.00 0.00 0.00 43 1011.7
20260831161451 92 222 0.0 0.0 0.00 0.00 0.00 42 1011.7
20260831160951 93 136 0.0 0.0 0.00 0.00 0.00 40 1011.7
20260831160451 93 157 0.0 0.0 0.00 0.00 0.00 38 1011.7
20260831155951 93 156 0.0 0.0 0.00 0.00 0.00 38 1011.7
20260831155450 93 161 0.0 0.0 0.00 0.00 0.00 37 1011.8
20260831154950 93 154 0.0 0.0 0.00 0.00 0.00 37 1011.8
20260831154450 93 153 0.0 0.0 0.00 0.00 0.00 37 1011.9
20260831153949 93 157 0.0 0.0 0.00 0.00 0.00 37 1011.9
20260831153449 93 149 0.0 0.0 0.00 0.00 0.00 37 1011.9
20260831152949 93 122 0.0 0.0 0.00 0.00 0.00 37 1012.0
20260831152448 93 121 0.0 0.0 0.00 0.00 0.00 37 1012.0
20260831151948 93 122 0.0 0.0 0.00 0.00 0.00 37 1012.0
20260831151448 93 122 0.0 0.0 0.00 0.00 0.00 37 1012.1
20260831150948 93 162 0.0 0.0 0.00 0.00 0.00 36 1012.0
20260831150447 94 133 0.0 0.0 0.00 0.00 0.00 36 1012.1
20260831145947 93 129 0.0 0.0 0.00 0.00 0.00 37 1012.0
20260831145447 93 72 0.0 0.0 0.00 0.00 0.00 36 1012.0
20260831144946 93 16 0.0 0.0 0.00 0.00 0.00 36 1012.0
20260831144446 94 354 0.0 0.0 0.00 0.00 0.00 36 1012.1
20260831143946 94 62 0.0 0.0 0.00 0.00 0.00 36 1012.1
20260831143446 94 139 0.0 0.0 0.00 0.00 0.00 36 1012.2
20260831142945 93 143 0.0 0.0 0.00 0.00 0.00 36 1012.2
20260831142445 93 145 0.0 0.0 0.00 0.00 0.00 37 1012.2
20260831141945 93 106 0.0 0.0 0.00 0.00 0.00 36 1012.2
20260831141444 93 105 0.0 0.0 0.00 0.00 0.00 37 1012.1
20260831140944 93 64 0.0 0.0 0.00 0.00 0.00 37 1012.1
20260831140444 93 10 0.0 0.0 0.00 0.00 0.00 36 1012.2
20260831135944 94 27 0.0 0.0 0.00 0.00 0.00 36 1012.2
20260831135443 93 35 0.0 0.0 0.00 0.00 0.00 36 1012.3
20260831134943 93 48 0.0 0.0 0.00 0.00 0.00 37 1012.3
20260831134443 93 92 0.0 0.0 0.00 0.00 0.00 37 1012.3
20260831133942 93 33 0.0 0.0 0.00 0.00 0.00 37 1012.4
20260831133442 93 60 0.0 0.0 0.00 0.00 0.00 36 1012.3
20260831132942 93 335 0.0 0.0 0.00 0.00 0.00 36 1012.4
20260831132442 93 343 0.0 0.0 0.00 0.00 0.00 36 1012.4
20260831131941 93 349 0.0 0.0 0.00 0.00 0.00 36 1012.5
20260831131441 93 285 0.0 0.0 0.00 0.00 0.00 37 1012.5
20260831130941 92 88 0.0 0.0 0.00 0.00 0.00 38 1012.6
20260831130440 92 91 0.0 0.0 0.00 0.00 0.00 38 1012.7
20260831125940 92 91 0.0 0.0 0.00 0.00 0.00 38 1012.7
20260831125440 92 91 0.0 0.0 0.00 0.00 0.00 38 1012.7
20260831124940 92 297 0.0 0.0 0.00 0.00 0.00 37 1012.7
20260831124439 92 346 0.0 0.0 0.00 0.00 0.00 38 1012.9
20260831123939 91 4 0.0 0.0 0.00 0.00 0.00 39 1013.0
20260831123439 91 17 0.0 0.0 0.00 0.00 0.00 39 1013.0
20260831122938 91 73 0.0 0.0 0.00 0.00 0.00 38 1013.0
20260831122438 91 31 0.0 0.0 0.00 0.00 0.00 39 1013.0
20260831121938 91 42 0.0 0.0 0.00 0.00 0.00 38 1013.0
20260831121437 91 337 0.0 0.0 0.00 0.00 0.00 38 1013.1
20260831120937 92 37 0.0 0.0 0.00 0.00 0.00 39 1013.1
20260831120437 91 4 0.0 0.0 0.00 0.00 0.00 39 1013.2
20260831115937 91 4 0.0 0.0 0.00 0.00 0.00 39 1013.2
20260831115436 91 136 0.0 0.0 0.00 0.00 0.00 40 1013.2
20260831114936 90 84 0.0 0.0 0.00 0.00 0.00 40 1013.2
20260831114436 90 48 0.0 0.0 0.00 0.00 0.00 40 1013.3
20260831113936 90 57 0.0 0.0 0.00 0.00 0.00 41 1013.4
20260831113435 89 51 0.0 0.0 0.00 0.00 0.00 41 1013.4
20260831112935 90 40 0.0 0.0 0.00 0.00 0.00 41 1013.5
20260831112435 90 41 0.0 0.0 0.00 0.00 0.00 41 1013.5
20260831111934 90 321 0.0 0.0 0.00 0.00 0.00 41 1013.6
20260831111434 90 50 0.0 0.0 0.00 0.00 0.00 41 1013.6
20260831110934 89 54 0.0 0.0 0.00 0.00 0.00 42 1013.6
20260831110433 89 335 0.0 0.0 0.00 0.00 0.00 42 1013.7
20260831105933 89 330 0.0 0.0 0.00 0.00 0.00 42 1013.7
20260831105433 89 319 0.0 0.0 0.00 0.00 0.00 42 1013.7
20260831104933 89 24 0.0 0.0 0.00 0.00 0.00 43 1013.7
20260831104432 88 27 0.0 0.0 0.00 0.00 0.00 43 1013.8
20260831103932 88 11 0.0 0.0 0.00 0.00 0.00 44 1013.8
20260831103432 88 11 0.0 0.0 0.00 0.00 0.00 44 1013.8
20260831102931 88 359 0.0 0.0 0.00 0.00 0.00 44 1013.8
20260831102431 88 326 0.0 0.0 0.00 0.00 0.00 44 1013.9
20260831101931 87 328 0.0 0.0 0.00 0.00 0.00 45 1013.9
20260831101431 87 327 0.0 0.0 0.00 0.00 0.00 44 1014.0
20260831100930 87 324 0.0 0.0 0.00 0.00 0.00 45 1014.0
20260831100430 88 340 0.0 0.0 0.00 0.00 0.00 44 1014.1
20260831095930 88 339 0.0 0.0 0.00 0.00 0.00 44 1014.1
20260831095429 87 307 0.0 0.0 0.00 0.00 0.00 45 1014.1
20260831094929 87 309 0.0 0.0 0.00 0.00 0.00 45 1014.2
20260831094429 86 249 0.0 0.0 0.00 0.00 0.00 46 1014.2
20260831093929 85 280 0.0 0.0 0.00 0.00 0.00 46 1014.3
20260831093428 85 284 0.0 0.0 0.00 0.00 0.00 47 1014.3
20260831092928 85 345 0.0 0.0 0.00 0.00 0.00 47 1014.3
20260831092428 84 307 0.0 0.0 0.00 0.00 0.00 47 1014.3
20260831091927 84 311 0.0 0.0 0.00 0.00 0.00 47 1014.4
20260831091427 84 4 0.0 0.0 0.00 0.00 0.00 48 1014.3
20260831090927 84 4 0.0 0.0 0.00 0.00 0.00 47 1014.4
20260831090427 84 339 0.0 0.0 0.00 0.00 0.00 47 1014.4
20260831085926 84 4 0.0 0.0 0.00 0.00 0.00 47 1014.4
20260831085426 84 305 0.0 0.0 0.00 0.00 0.00 47 1014.4
20260831084926 84 301 0.0 0.0 0.00 0.00 0.00 47 1014.4
20260831084425 84 303 0.0 0.0 0.00 0.00 0.00 47 1014.4
20260831083925 84 297 0.0 0.0 0.00 0.00 0.00 47 1014.4
20260831083425 84 286 0.0 0.0 0.00 0.00 0.00 47 1014.4
20260831082925 83 330 0.0 0.0 0.00 0.00 0.00 47 1014.4
20260831082424 83 341 0.0 0.0 0.00 0.00 0.00 47 1014.3
20260831081924 83 359 0.0 0.0 0.00 0.00 0.00 47 1014.3
20260831081424 83 322 0.0 0.0 0.00 0.00 0.00 47 1014.3
20260831080923 83 336 0.0 0.0 0.00 0.00 0.00 48 1014.3
20260831080423 83 299 0.0 0.0 0.00 0.00 0.00 47 1014.2
20260831075923 83 299 0.0 0.0 0.00 0.00 0.00 46 1014.2
20260831075423 84 318 0.0 0.0 0.00 0.00 0.00 46 1014.1
20260831074922 83 218 0.0 0.0 0.00 0.00 0.00 46 1014.1
20260831074422 83 218 0.0 0.0 0.00 0.00 0.00 47 1014.1
20260831073922 82 218 0.0 0.0 0.00 0.00 0.00 48 1014.0
20260831073421 82 218 0.0 0.0 0.00 0.00 0.00 48 1014.0
20260831072921 81 218 0.0 0.0 0.00 0.00 0.00 49 1014.1
20260831072421 81 218 0.0 0.0 0.00 0.00 0.00 49 1014.0
20260831071921 80 218 0.0 0.0 0.00 0.00 0.00 50 1014.0
20260831071420 80 218 0.0 0.0 0.00 0.00 0.00 51 1014.0
20260831070920 79 214 0.0 0.0 0.00 0.00 0.00 52 1014.0
20260831070420 78 212 0.0 0.0 0.00 0.00 0.00 53 1014.1
20260831065919 78 214 0.0 0.0 0.00 0.00 0.00 53 1014.0
20260831065419 77 214 0.0 0.0 0.00 0.00 0.00 54 1014.0
20260831064919 77 199 0.0 0.0 0.00 0.00 0.00 54 1014.0
20260831064418 77 220 0.0 0.0 0.00 0.00 0.00 54 1014.0
20260831063918 76 218 0.0 0.0 0.00 0.00 0.00 55 1013.9
20260831063418 76 211 0.0 0.0 0.00 0.00 0.00 55 1013.8
20260831062918 75 197 0.0 0.0 0.00 0.00 0.00 56 1013.8
20260831062417 75 173 0.0 0.0 0.00 0.00 0.00 56 1013.9
20260831061917 75 221 0.0 0.0 0.00 0.00 0.00 57 1013.9
20260831061417 74 199 0.0 0.0 0.00 0.00 0.00 58 1013.8
20260831060916 74 221 0.0 0.0 0.00 0.00 0.00 58 1013.8
20260831060416 74 216 0.0 0.0 0.00 0.00 0.00 59 1013.7
20260831055916 73 249 0.0 0.0 0.00 0.00 0.00 59 1013.7
20260831055416 73 240 0.0 0.0 0.00 0.00 0.00 60 1013.7
20260831054915 73 227 0.0 0.0 0.00 0.00 0.00 60 1013.6
20260831054415 73 212 0.0 0.0 0.00 0.00 0.00 60 1013.6
20260831053915 73 243 0.0 0.0 0.00 0.00 0.00 60 1013.5
20260831053414 73 234 0.0 0.0 0.00 0.00 0.00 60 1013.6
20260831052914 73 248 0.0 0.0 0.00 0.00 0.00 60 1013.5
20260831052414 73 207 0.0 0.0 0.00 0.00 0.00 60 1013.5
20260831051914 73 233 0.0 0.0 0.00 0.00 0.00 60 1013.5
20260831051413 72 231 0.0 0.0 0.00 0.00 0.00 61 1013.4
20260831050913 72 253 0.0 0.0 0.00 0.00 0.00 61 1013.4
20260831050413 72 216 0.0 0.0 0.00 0.00 0.00 61 1013.4
20260831045912 72 237 0.0 0.0 0.00 0.00 0.00 60 1013.4
20260831045412 72 238 0.0 0.0 0.00 0.00 0.00 60 1013.3
20260831044912 72 242 0.0 0.0 0.00 0.00 0.00 60 1013.3
20260831044412 72 222 0.0 0.0 0.00 0.00 0.00 60 1013.3
20260831043911 72 236 0.0 0.0 0.00 0.00 0.00 60 1013.3
20260831043411 72 237 0.0 0.0 0.00 0.00 0.00 60 1013.2
20260831042911 72 243 0.0 0.0 0.00 0.00 0.00 60 1013.2
20260831042410 72 232 0.0 0.0 0.00 0.00 0.00 60 1013.2
20260831041910 73 247 0.0 0.0 0.00 0.00 0.00 60 1013.2
20260831041410 73 233 0.0 0.0 0.00 0.00 0.00 60 1013.1
20260831040910 73 234 0.0 0.0 0.00 0.00 0.00 59 1013.2
20260831040409 73 226 0.0 0.0 0.00 0.00 0.00 59 1013.2
20260831035909 73 235 0.0 0.0 0.00 0.00 0.00 60 1013.2
20260831035409 73 239 0.0 0.0 0.00 0.00 0.00 59 1013.2
20260831034908 73 237 0.0 0.0 0.00 0.00 0.00 59 1013.2
20260831034408 73 233 0.0 0.0 0.00 0.00 0.00 59 1013.2
20260831033908 73 237 0.0 0.0 0.00 0.00 0.00 59 1013.2
20260831033408 73 245 0.0 0.0 0.00 0.00 0.00 59 1013.3
20260831032907 73 234 0.0 0.0 0.00 0.00 0.00 59 1013.3
20260831032407 73 250 0.0 0.0 0.00 0.00 0.00 59 1013.3
20260831031907 73 240 0.0 0.0 0.00 0.00 0.00 59 1013.4
20260831031406 73 245 0.0 0.0 0.00 0.00 0.00 59 1013.4
20260831030906 73 246 0.0 0.0 0.00 0.00 0.00 59 1013.5
20260831030406 73 251 0.0 0.0 0.00 0.00 0.00 59 1013.5
20260831025906 74 197 0.0 0.0 0.00 0.00 0.00 59 1013.5
20260831025405 74 233 0.0 0.0 0.00 0.00 0.00 59 1013.5
20260831024905 73 224 0.0 0.0 0.00 0.00 0.00 59 1013.5
20260831024405 74 211 0.0 0.0 0.00 0.00 0.00 59 1013.4
20260831023904 74 224 0.0 0.0 0.00 0.00 0.00 59 1013.5
20260831023404 74 223 0.0 0.0 0.00 0.00 0.00 58 1013.5
20260831022904 74 206 0.0 0.0 0.00 0.00 0.00 59 1013.5
20260831022404 74 205 0.0 0.0 0.00 0.00 0.00 59 1013.5
20260831021903 74 204 0.0 0.0 0.00 0.00 0.00 59 1013.6
20260831021403 73 256 0.0 0.0 0.00 0.00 0.00 60 1013.5
20260831020903 73 195 0.0 0.0 0.00 0.00 0.00 60 1013.6
20260831020402 73 199 0.0 0.0 0.00 0.00 0.00 60 1013.6
20260831015902 73 231 0.0 0.0 0.00 0.00 0.00 60 1013.6
20260831015402 73 229 0.0 0.0 0.00 0.00 0.00 60 1013.5
20260831014901 73 233 0.0 0.0 0.00 0.00 0.00 60 1013.5
20260831014401 73 226 0.0 0.0 0.00 0.00 0.00 60 1013.5
20260831013901 73 233 0.0 0.0 0.00 0.00 0.00 60 1013.5
20260831013401 73 222 0.0 0.0 0.00 0.00 0.00 60 1013.5
20260831012900 73 222 0.0 0.0 0.00 0.00 0.00 60 1013.5
20260831012400 73 218 0.0 0.0 0.00 0.00 0.00 60 1013.5
20260831011900 74 213 0.0 0.0 0.00 0.00 0.00 60 1013.5
20260831011359 74 212 0.0 0.0 0.00 0.00 0.00 61 1013.5
20260831010859 74 212 0.0 0.0 0.00 0.00 0.00 61 1013.5
20260831010359 74 212 0.0 0.0 0.00 0.00 0.00 61 1013.5
20260831005859 74 212 0.0 0.0 0.00 0.00 0.00 61 1013.6
20260831005358 74 212 0.0 0.0 0.00 0.00 0.00 60 1013.6
20260831004858 74 212 0.0 0.0 0.00 0.00 0.00 60 1013.6
20260831004358 75 212 0.0 0.0 0.00 0.00 0.00 61 1013.6
20260831003857 75 212 0.0 0.0 0.00 0.00 0.00 61 1013.6
20260831003357 75 212 0.0 0.0 0.00 0.00 0.00 61 1013.6
20260831002857 75 212 0.0 0.0 0.00 0.00 0.00 62 1013.6
20260831002357 75 212 0.0 0.0 0.00 0.00 0.00 63 1013.7
20260831001856 75 212 0.0 0.0 0.00 0.00 0.00 63 1013.7
20260831001356 75 212 0.0 0.0 0.00 0.00 0.00 63 1013.6
20260831000856 75 212 0.0 0.0 0.00 0.00 0.00 63 1013.6
20260831000355 75 212 0.0 0.0 0.00 0.00 0.00 64 1013.6
20260830235855 75 212 0.0 0.0 0.00 0.00 0.00 64 1013.7
20260830235355 76 212 0.0 0.0 0.00 0.00 0.00 64 1013.7
20260830234855 76 212 0.0 0.0 0.00 0.00 0.00 65 1013.7
20260830234354 76 212 0.0 0.0 0.00 0.00 0.00 65 1013.7
20260830233854 76 212 0.0 0.0 0.00 0.00 0.00 65 1013.7
20260830233354 76 214 0.0 0.0 0.00 0.00 0.00 66 1013.7
20260830232853 76 212 0.0 0.0 0.00 0.00 0.00 66 1013.7
20260830232353 76 212 0.0 0.0 0.00 0.00 0.00 66 1013.7
20260830231853 76 212 0.0 0.0 0.00 0.00 0.00 65 1013.7
20260830231353 76 212 0.0 0.0 0.00 0.00 0.00 65 1013.6
20260830230852 76 212 0.0 0.0 0.00 0.00 0.00 64 1013.7
20260830230352 76 212 0.0 0.0 0.00 0.00 0.00 64 1013.7
20260830225852 77 214 0.0 0.0 0.00 0.00 0.00 64 1013.7
20260830225351 77 213 0.0 0.0 0.00 0.00 0.00 64 1013.7
20260830224851 77 210 0.0 0.0 0.00 0.00 0.00 63 1013.7
20260830224351 77 210 0.0 0.0 0.00 0.00 0.00 63 1013.7
20260830223850 77 211 0.0 0.0 0.00 0.00 0.00 64 1013.8
20260830223350 77 211 0.0 0.0 0.00 0.00 0.00 64 1013.8
20260830222850 77 211 0.0 0.0 0.00 0.00 0.00 64 1013.7
20260830222350 77 206 0.0 0.0 0.00 0.00 0.00 64 1013.7
20260830221849 78 218 0.0 0.0 0.00 0.00 0.00 65 1013.7
20260830221349 78 218 0.0 0.0 0.00 0.00 0.00 64 1013.6
20260830220849 78 218 0.0 0.0 0.00 0.00 0.00 64 1013.7
20260830220348 78 134 0.0 0.0 0.00 0.00 0.00 64 1013.6
20260830215848 78 134 0.0 0.0 0.00 0.00 0.00 64 1013.6
20260830215348 78 134 0.0 0.0 0.00 0.00 0.00 63 1013.6
20260830214848 78 133 0.0 0.0 0.00 0.00 0.00 63 1013.6
20260830214347 78 133 0.0 0.0 0.00 0.00 0.00 63 1013.6
20260830213847 78 133 0.0 0.0 0.00 0.00 0.00 63 1013.6
20260830213347 78 133 0.0 0.0 0.00 0.00 0.00 63 1013.6
20260830212846 78 134 0.0 0.0 0.00 0.00 0.00 63 1013.6
20260830212346 78 134 0.0 0.0 0.00 0.00 0.00 63 1013.6
20260830211846 78 133 0.0 0.0 0.00 0.00 0.00 63 1013.6
20260830211346 78 133 0.0 0.0 0.00 0.00 0.00 63 1013.5